Location: Roland
(31.1349°N, 85.4372°W)
Time: 19:51:29
(UTC+00:00)

SR - Pass Details

Date: 17 April 2021
Orbit: 573 x 882 km, 66.7° (Epoch: 13 May)

Event Time Altitude Azimuth Distance (km) Brightness Sun altitude
Rises 12:13:06 0° 173° (S) 3,180 ? 12.2°
Reaches altitude 10° 12:15:45 10° 160° (SSE) 2,312 ? 12.8°
Maximum altitude 12:20:05 26° 106° (ESE) 1,566 ? 13.7°
Drops below altitude 10° 12:24:41 10° 52° (NE) 2,467 ? 14.7°
Sets 12:27:36 0° 40° (NE) 3,439 ? 15.3°
